Location: Newark
(52.3500°N, 175.9667°E)
Time: 20:39:24
(UTC+00:00)

Transit 4A - Pass Details

Date: 28 April 2021
Orbit: 871 x 974 km, 66.8° (Epoch: 16 May)

Event Time Altitude Azimuth Distance (km) Brightness Sun altitude
Rises 08:54:16 0° 175° (S) 3,616 - -10.8°
Exits shadow 08:56:18 - 168° (SSE) 2,943 10.0 -11.0°
Reaches altitude 10° 08:57:13 10° 163° (SSE) 2,660 9.8 -11.1°
Maximum altitude 09:02:11 26° 110° (ESE) 1,753 8.8 -11.6°
Drops below altitude 10° 09:07:03 10° 56° (ENE) 2,616 10.1 -12.2°
Sets 09:09:56 0° 44° (NE) 3,544 10.9 -12.5°
